753  
ASUS41 KBTV 241110  
RWRBTV  
VERMONT REGIONAL WEATHER ROUNDUP  
NATIONAL WEATHER SERVICE BURLINGTON VT  
600 AM EST WED JAN 24 2018  
 
NOTE: "FAIR" INDICATES FEW OR NO CLOUDS BELOW 12,000 FEET WITH NO  
SIGNIFICANT WEATHER AND/OR S TO VISIBILITY
.  
 
* THESE REPORTS ARE NOT UNDER NWS QUALITY CONTROL AND/OR DO NOT  
REPORT WEATHER SUCH AS PRECIPITATION AND FOG.
 
 
VTZ001>019-241200-  
_____VERMONT_____  
 
 
CITY SKY/WX TMP DP RH WIND PRES REMARKS
 
BURLINGTON CLOUDY 28 18 66 NW18G32 29.76R WCI 15  
MONTPELIER CLOUDY 30 22 72 NW14G25 29.67R WCI 19  
MORRISVILLE LGT SNOW 25 20 81 NW20G30 29.70R WCI 11  
ST. JOHNSBURY* N/A 32 25 75 MISG 29.62R  
LYNDONVILLE* CLOUDY 29 25 85 SW16G23 29.63R WCI 17  
MIDDLEBURY* CLOUDY 31 21 67 W5 29.72R WCI 26  
RUTLAND* CLOUDY 32 23 69 W12G25 29.69R WCI 23  
SPRINGFIELD CLOUDY 35 24 64 W12G24 29.67R WCI 27  
HIGHGATE* CLOUDY 21 13 71 W7G21 29.80R WCI 12  
NEWPORT* LGT SNOW 25 19 78 W23G32 29.67R WCI 10  
BENNINGTON CLOUDY 31 22 69 W10G22 29.75R WCI 22  
SUTTON* N/A 27 N/A N/A MISG N/A  
 
_____LAKE CHAMPLAIN_____  
 
 
CITY SKY/WX TMP DP RH WIND PRES REMARKS
 
BURTON ISLAND* N/A 25 18 74 NW23G36 N/A WCI 10  
COLCHESTER RF* N/A 28 18 64 NW26G33 N/A WCI 13  
DIAMOND ISL* N/A 34 23 64 W20 N/A WCI 22  
 

 
 
NYZ007-026>031-035-052-083-087-241200-  
_____NORTHERN NEW YORK_____  
 
 
CITY SKY/WX TMP DP RH WIND PRES REMARKS
 
PLATTSBURGH CLOUDY 25 12 58 VRB7 29.78R WCI 17  
SARANAC LAKE LGT SNOW 14 11 87 W9 29.72R FOG WCI 2  
MASSENA CLOUDY 16 9 74 W13G26 29.91R WCI 2  
OGDENSBURG* FAIR 15 8 73 NW17 29.93R WCI -1  
POTSDAM* CLOUDY 16 9 73 W14 29.89R WCI 1  
WATERTOWN MOCLDY 19 13 77 NW12 29.95R WCI 7  
FT DRUM CLOUDY 18 10 73 NW10 29.90R WCI 6  
ALBANY CLOUDY 32 22 66 NW13G29 29.83R WCI 22  
GLENS FALLS CLOUDY 31 20 63 W12 29.77R WCI 22  
 

 
NHZ002-005-011-241200-  
_____NEW HAMPSHIRE_____  
 
 
CITY SKY/WX TMP DP RH WIND PRES REMARKS
 
LEBANON CLOUDY 36 24 62 W14G22 29.64R WCI 27  
KEENE CLOUDY 35 25 66 W15G22 29.67R WCI 25  
MT WASHINGTON BLWGSNOW 12 12 100 W76G85 N/A VSB 0 WCI -18  
PLYMOUTH CLOUDY 36 26 68 W10G22 29.60R WCI 28  
WHITEFIELD CLOUDY 33 27 78 W14G22 29.58R WCI 23  
 

 
 
_____REGIONAL QUEBEC LOCATIONS_____  
 
 
CITY SKY/WX TMP DP RH WIND PRES REMARKS
 
MONTREAL FLURRIES 18 9 68 W17G28 29.80R WCI 2  
QUEBEC CITY LGT SNOW 19 16 86 W25 29.51R WCI 2  
SHERBROOKE LGT SNOW 25 23 93 W22G36 29.58R WCI 10  
 
_____REGIONAL ONTARIO LOCATIONS_____  
 
 
CITY SKY/WX TMP DP RH WIND PRES REMARKS
 
OTTAWA CLOUDY 12 5 73 W20G30 29.89R WCI -6  
 
______KEY______  
VSB - VISIBILITY IN MILES  
WCI - WIND CHILL INDEX  
HX - HEAT INDEX  

 
NNNN  
 
 
CLICK HERE TO GO TO PREVIOUS BULLETINS.

The Nexlab VT Page
The Nexlab NY Page Main Text Page